Flag for Germany Weather past 2 weeks in Schwedt/Oder, Brandenburg, Germany

Now
68 °F

Passing clouds.


Feels Like: 68 °F
Forecast: 51 / 66 °F
Wind: 9 mph from Southeast

Location: Szczecin Airport


UV Index: 0 (Low)

Visibility: N/A


Pressure: 29.89 "Hg

Humidity: 43%

Dew point: 45 °F

Location of Schwedt/OderLocation

Historic Weather in Schwedt/Oder

°F

Schwedt/Oder temperature yesterday

Maximum temperature yesterday: 68 °F (at 2:00 PM)
Minimum temperature yesterday: 37 °F (at 5:00 AM)
Average temperature yesterday: 53 °F

Past Weeks' High & Low Weather Summary

 TemperatureHumidityPressure
High70 °F (Apr 20, 2:00 PM)100% (Apr 10, 8:00 AM)30.42 "Hg (Apr 10, 8:00 AM)
Low30 °F (Apr 16, 5:00 AM)35% (Apr 16, 11:00 AM)29.59 "Hg (Apr 14, 9:30 AM)
Average48 °F76%29.99 "Hg
* Reported Apr 5 4:00 PM — Apr 20 4:00 PM, Schwedt/Oder, Weather by CustomWeather, © 2014

Note: Actual official high and low records may vary slightly from our data, if they occured in-between our weather recording intervals... More about our weather records

Advertising

Historic Weather Conditions — Data for Previous 24 hours

 ConditionsComfort  
Time TempWeatherWind HumidityBarometerVisibility
4:00 PM
Apr 20
70 °FPassing clouds.12 mph38%29.92 "HgN/A
3:30 PM70 °FPassing clouds.13 mph40%29.92 "HgN/A
3:00 PM70 °FPassing clouds.12 mph43%29.92 "HgN/A
2:30 PM68 °FScattered clouds.15 mph46%29.95 "HgN/A
2:00 PM70 °FScattered clouds.13 mph46%29.95 "HgN/A
1:30 PM68 °FScattered clouds.13 mph46%29.95 "HgN/A
1:00 PM66 °FScattered clouds.13 mph52%29.95 "HgN/A
12:30 PM66 °FPassing clouds.12 mph49%29.95 "HgN/A
12:00 PM64 °FPassing clouds.12 mph56%29.98 "HgN/A
11:30 AM63 °FPassing clouds.7 mph64%29.98 "HgN/A
11:00 AM61 °FPassing clouds.7 mph68%29.98 "HgN/A
10:30 AM57 °FPassing clouds.5 mph77%30.01 "HgN/A
10:00 AM57 °FPassing clouds.3 mph72%30.01 "HgN/A
9:30 AM55 °FPassing clouds.7 mph77%30.01 "HgN/A
9:00 AM55 °FSunny.6 mph77%30.01 "Hg10 mi
8:30 AM54 °FSunny.8 mph77%29.98 "Hg10 mi
8:00 AM54 °FSunny.9 mph77%29.98 "Hg10 mi
7:30 AM50 °FSunny.8 mph88%29.98 "Hg10 mi
7:00 AM50 °FSunny.8 mph82%29.98 "Hg10 mi
6:30 AM48 °FClear.8 mph87%29.98 "Hg10 mi
6:00 AM48 °FClear.8 mph87%29.98 "Hg10 mi
5:30 AM48 °FClear.7 mph87%29.98 "Hg10 mi
5:00 AM50 °FClear.7 mph82%30.01 "Hg10 mi
4:30 AM50 °FClear.7 mph88%30.01 "Hg10 mi
4:00 AM50 °FClear.7 mph88%30.01 "Hg10 mi
3:30 AM50 °FClear.7 mph88%30.01 "Hg10 mi
3:00 AM52 °FClear.7 mph82%30.01 "Hg10 mi
2:30 AM52 °FClear.7 mph82%30.01 "Hg10 mi
2:00 AM52 °FClear.7 mph82%30.01 "Hg10 mi
1:30 AM52 °FClear.7 mph82%30.04 "Hg10 mi
1:00 AM52 °FClear.7 mph82%30.04 "Hg10 mi
12:30 AM52 °FClear.7 mph82%30.04 "Hg10 mi
12:00 AM52 °FClear.7 mph82%30.04 "Hg10 mi
11:30 PM
Apr 19
52 °FClear.6 mph82%30.04 "Hg10 mi
11:00 PM54 °FClear.7 mph77%30.04 "Hg10 mi
10:30 PM54 °FClear.7 mph77%30.04 "Hg10 mi
10:00 PM54 °FClear.8 mph77%30.04 "Hg10 mi
9:30 PM55 °FClear.9 mph77%30.04 "Hg10 mi
9:00 PM55 °FSunny.8 mph77%30.04 "Hg10 mi
8:30 PM57 °FSunny.8 mph72%30.04 "Hg10 mi
8:00 PM59 °FSunny.9 mph68%30.04 "Hg10 mi
7:30 PM61 °FPassing clouds.8 mph68%30.04 "HgN/A
7:00 PM63 °FSunny.8 mph64%30.04 "Hg10 mi
6:30 PM64 °FPassing clouds.8 mph60%30.04 "HgN/A
6:00 PM66 °FPassing clouds.10 mph56%30.04 "HgN/A
5:30 PM68 °FPassing clouds.12 mph56%30.04 "HgN/A
5:00 PM68 °FPassing clouds.9 mph56%30.04 "HgN/A
Weather by CustomWeather, © 2014

See weather overview